GFSMA_850_rhum_372.txt.gz
RH
70 72 83 87 78 90 98 99 98 97 94 89 85 91 84 87 84 92 98 98 92 92 92 85 83 87 92 94 92 93 95 99 87 94 95 95 94 95 94 93 93 93 92
71 72 98 94 93 78 84 77 82 95 94 91 89 97 92 84 87 90 95 100 99 96 92 92 90 93 97 97 97 86 87 89 90 84 84 83 82 82 81 81 82 82 81
90 66 92 99 81 71 68 88 98 99 84 95 94 87 85 85 79 84 93 99 99 97 92 92 96 97 97 93 99 96 96 98 96 94 87 88 87 88 88 85 84 82 82
97 78 89 73 75 74 78 93 96 93 97 91 91 80 81 80 81 91 100 99 100 100 100 100 100 98 89 91 98 97 93 100 96 91 95 99 98 97 97 95 93 91 90
99 88 84 84 84 81 95 98 100 100 92 81 89 91 96 96 94 99 100 100 100 100 100 100 99 97 95 98 98 98 99 94 90 97 100 100 100 100 100 100 99 99 97
100 98 95 95 89 90 96 100 100 99 86 86 91 94 99 99 100 100 100 100 100 100 98 96 100 95 91 93 88 86 77 77 83 88 93 98 99 98 93 86 76 83 70
100 100 100 99 94 91 94 100 100 98 93 91 90 100 100 100 100 100 100 99 99 100 100 97 93 94 100 93 76 66 62 61 54 70 56 69 69 53 49 38 23 23 26
100 100 100 100 100 100 100 100 100 99 97 99 98 98 100 100 100 100 100 100 100 98 99 100 93 96 96 80 77 71 70 81 100 100 99 100 100 96 91 97 88 86 84
97 100 100 100 99 98 100 100 99 99 98 100 99 96 98 98 100 100 100 99 100 100 100 100 91 90 88 83 79 72 64 92 100 100 100 100 100 97 96 96 81 59 38
97 100 99 99 100 99 100 100 100 99 97 98 100 98 86 80 98 99 99 100 100 98 100 99 100 98 93 85 77 63 60 67 98 99 99 99 100 100 88 68 72 33 37
100 100 99 99 100 100 98 100 100 100 100 100 99 97 93 79 86 88 97 100 100 98 100 98 100 98 91 80 70 55 33 41 97 100 100 99 97 95 64 51 19 21 16
99 93 98 94 100 97 100 99 100 100 100 100 99 99 94 79 84 81 84 98 97 99 100 98 100 100 92 80 67 46 16 31 48 100 99 100 95 62 20 22 17 18 14
99 98 100 98 93 99 99 93 98 100 100 100 100 100 98 90 84 75 78 88 98 99 100 100 100 100 94 72 72 54 37 32 24 62 83 33 17 14 14 16 15 15 14
100 98 100 99 93 97 100 97 92 96 100 100 100 100 100 100 93 89 86 83 100 100 98 96 93 88 85 66 44 59 46 27 15 14 21 15 13 14 15 16 16 16 16
100 93 100 98 99 99 100 97 100 100 100 99 100 100 100 100 96 93 93 85 85 93 92 83 57 42 38 38 42 34 31 22 14 10 12 13 15 16 17 17 17 17 16
95 96 100 96 98 100 98 98 99 99 100 99 100 100 100 100 95 75 72 90 93 79 75 66 48 34 21 25 28 28 24 18 12 10 11 14 16 18 18 18 18 17 17
97 95 92 98 97 97 94 97 98 98 98 98 99 100 100 100 96 97 75 50 58 57 46 51 35 29 22 24 24 25 22 15 12 11 14 16 18 19 19 20 19 19 18
98 97 93 89 92 94 97 96 98 96 98 98 98 97 97 98 98 95 82 87 68 54 39 33 37 31 26 28 25 26 22 15 13 14 17 18 20 20 21 21 22 22 21
92 93 96 97 92 85 89 96 97 96 96 96 96 98 98 98 98 98 96 91 73 39 31 22 25 29 24 29 34 32 24 16 15 17 19 20 21 22 24 24 25 25 25
91 90 91 92 95 98 92 84 79 86 95 96 93 94 96 98 97 97 96 96 95 44 32 28 26 25 27 32 38 32 27 19 17 19 20 22 24 25 26 30 40 50 51
91 93 92 91 94 94 96 98 89 72 67 84 95 92 88 92 95 95 96 94 94 88 46 36 32 29 34 35 33 31 29 23 20 21 24 27 33 45 59 61 60 56 52
89 90 90 90 92 96 100 98 96 97 93 58 63 96 95 67 53 67 68 48 44 43 44 37 32 29 27 29 32 34 31 25 24 24 35 46 54 59 63 61 57 53 51
75 86 88 87 90 95 92 100 97 92 94 97 94 67 50 58 78 73 45 31 27 30 34 32 28 29 28 30 30 34 30 24 24 36 51 63 76 74 66 61 58 55 53
22 25 48 75 83 88 94 96 98 83 85 89 94 96 97 93 82 64 44 31 27 25 27 31 34 36 35 35 36 31 26 34 56 76 82 78 74 72 68 65 62 61 57
25 27 25 23 24 51 79 89 98 91 91 89 89 90 92 96 98 98 97 95 90 67 36 26 27 27 29 29 31 32 49 92 91 87 87 88 86 78 71 66 63 61 59
28 25 24 24 25 23 22 34 87 96 93 93 88 88 90 94 92 94 96 96 96 94 95 96 96 87 47 44 59 83 95 98 97 96 92 95 95 88 83 68 59 56 55

GFSMA_850_rhum_375.txt.gz
RH
87 80 82 99 97 98 92 96 97 92 94 99 88 77 71 89 88 86 91 83 85 89 86 80 73 79 86 90 91 89 85 87 83 89 89 94 89 82 91 92 93 92 84
86 80 79 96 100 90 87 89 91 91 95 84 82 88 88 89 83 85 94 89 92 93 93 87 87 81 84 94 94 92 92 94 96 95 93 94 95 92 94 94 89 91 93
78 74 71 79 90 93 88 98 98 87 85 92 100 97 90 90 83 89 90 96 99 99 96 93 92 96 92 92 96 93 93 90 88 87 87 83 83 82 83 84 83 82 82
90 72 77 94 91 90 80 69 78 99 96 100 96 100 95 98 94 94 97 100 100 99 99 99 96 99 99 97 94 93 93 94 93 90 88 86 86 91 91 90 90 87 86
100 91 94 100 95 84 83 82 86 89 100 100 100 91 95 92 93 100 100 99 93 98 100 100 99 100 99 96 94 94 93 100 99 98 94 95 95 98 98 96 96 96 96
98 99 94 100 100 87 79 91 88 100 100 98 98 95 95 86 86 85 90 99 96 99 99 100 97 100 99 95 94 94 98 99 96 94 94 93 100 100 100 100 100 100 99
100 99 96 100 92 76 89 84 84 98 100 94 91 100 100 98 100 99 100 100 99 100 99 99 98 98 97 95 97 99 100 99 92 93 98 99 100 100 100 100 99 92 82
100 100 98 100 91 98 100 98 97 99 100 100 96 99 100 100 100 100 100 98 100 98 100 100 96 96 85 89 97 97 75 63 57 61 72 82 93 98 88 67 76 82 46
100 100 100 100 100 100 99 99 100 99 98 98 98 95 98 99 99 100 100 100 100 100 99 91 100 98 93 85 82 80 70 65 85 97 93 95 99 100 100 100 95 91 49
100 100 98 98 100 99 100 100 100 100 100 95 99 93 90 91 98 99 100 100 100 100 99 100 99 93 91 81 88 74 67 51 48 94 97 97 100 99 100 99 99 97 83
97 99 99 100 100 95 98 100 100 100 100 99 92 93 93 92 94 97 98 98 100 100 100 99 99 100 90 93 89 80 63 52 56 73 91 98 99 99 95 85 70 80 64
100 100 96 100 100 93 94 98 100 100 100 100 100 100 95 90 91 92 97 100 98 100 100 100 100 100 95 93 89 82 81 90 96 96 100 98 100 86 81 63 34 22 30
100 100 100 99 94 100 98 94 99 100 99 100 100 100 100 95 87 91 88 99 98 100 100 98 100 100 99 98 94 88 84 88 86 97 99 98 96 77 60 41 27 18 16
100 98 99 100 98 99 100 96 96 99 99 97 100 99 99 100 95 97 96 94 99 100 98 98 98 100 99 99 100 91 78 52 64 98 100 72 32 20 16 24 32 17 16
100 99 100 99 99 100 100 100 98 98 100 96 100 96 98 100 99 100 98 98 95 98 99 99 99 100 99 100 100 89 81 72 43 56 99 72 22 14 14 15 16 16 16
98 99 99 98 98 99 99 100 99 100 96 99 99 100 99 97 100 98 98 100 100 100 100 99 100 98 100 100 100 97 84 74 55 32 24 15 17 14 15 16 17 17 17
97 97 98 100 99 96 98 98 97 99 98 99 99 99 100 100 99 100 100 99 98 100 99 100 100 99 100 100 100 100 96 75 60 43 20 14 14 16 17 17 18 18 18
94 95 93 96 96 98 98 96 97 98 97 97 99 98 99 100 100 100 99 99 98 97 100 95 96 98 98 98 98 91 87 74 56 30 18 11 13 16 18 18 19 19 19
90 91 92 88 85 89 95 96 98 97 97 98 98 96 97 97 98 98 99 99 98 98 96 94 81 58 76 64 76 65 57 46 34 18 11 11 15 18 19 20 20 21 22
95 95 95 94 92 92 87 86 91 95 97 97 98 98 98 97 97 97 98 98 99 98 97 96 88 67 45 48 59 66 56 40 24 14 13 15 18 19 20 21 23 24 25
83 85 89 94 96 93 96 91 86 78 75 87 94 94 95 97 97 97 98 97 96 97 98 98 97 81 38 40 53 69 60 42 26 16 16 18 19 21 23 25 26 30 49
83 84 84 87 94 90 100 100 90 92 84 67 66 92 93 93 94 95 95 96 96 96 97 97 96 92 62 30 36 45 54 43 27 20 19 19 22 23 26 31 50 58 58
69 78 82 85 89 95 100 100 86 82 90 94 83 62 58 81 93 80 90 94 94 94 95 95 96 96 96 62 34 37 44 41 31 24 20 21 24 28 41 60 67 64 59
16 17 37 70 81 88 87 99 87 80 76 79 87 92 91 81 64 64 80 79 64 78 93 95 93 77 67 59 47 43 44 45 39 31 25 24 34 48 67 70 70 74 74
19 18 18 17 17 39 71 82 91 84 79 79 78 78 84 88 91 96 92 80 81 64 39 35 58 84 71 60 50 53 52 50 43 31 40 58 64 73 73 77 82 81 73
25 24 21 18 17 17 18 19 38 78 84 80 80 79 81 83 84 100 96 92 87 88 94 94 63 40 36 53 47 47 49 48 39 38 52 83 87 87 87 81 82 82 84

GFSMA_850_rhum_378.txt.gz
RH
80 86 87 86 86 86 89 94 99 100 98 95 96 92 86 79 74 70 82 83 84 81 81 81 76 84 81 85 86 89 98 85 77 87 72 68 85 88 73 71 73 87 88
81 83 89 94 92 88 89 100 100 100 99 100 96 89 95 87 75 73 81 75 78 82 81 75 74 80 84 82 82 92 98 91 88 93 89 80 90 90 94 94 90 90 93
86 90 89 84 90 99 95 95 89 84 92 89 90 91 91 84 84 82 87 86 86 87 80 69 74 80 86 93 86 89 92 87 89 93 90 91 93 92 90 93 90 92 87
85 96 85 97 100 100 96 92 90 91 93 88 96 98 85 92 91 92 85 92 93 91 95 82 75 83 94 90 90 92 92 94 96 95 94 90 84 84 85 83 83 86 84
88 98 82 85 96 100 94 91 95 86 95 100 100 95 90 91 86 88 92 93 95 93 99 97 95 89 99 96 95 96 98 95 90 88 84 84 86 90 92 93 92 90 90
98 98 87 84 86 92 92 84 98 99 93 99 100 97 100 99 88 85 96 97 94 95 98 100 100 99 100 100 100 100 94 93 96 96 94 92 90 98 99 97 96 97 97
99 100 99 99 98 92 86 89 88 87 98 98 100 100 100 97 92 100 100 99 92 99 100 100 98 100 100 99 100 96 95 98 100 99 99 94 88 77 90 93 99 99 100
98 100 100 100 100 98 90 96 82 88 100 99 99 100 100 99 100 99 99 100 95 88 82 78 96 98 93 97 95 96 92 99 100 92 84 78 76 85 96 100 100 97 71
100 100 100 100 100 100 99 100 96 99 98 100 100 97 98 99 98 100 100 100 99 93 100 93 100 97 96 93 86 89 99 99 99 88 79 68 80 74 86 100 98 72 45
100 100 100 98 97 100 99 100 100 99 100 98 100 99 94 91 97 99 100 100 100 100 100 100 100 100 97 93 89 92 88 79 73 78 72 97 99 88 98 96 96 91 50
98 100 100 100 100 100 100 98 100 100 100 100 100 99 91 92 96 98 98 99 100 100 99 100 100 98 100 99 96 91 81 77 65 77 97 96 99 99 100 100 99 88 78
99 100 100 100 99 100 99 100 100 100 100 100 100 100 97 98 100 97 98 100 98 100 100 100 97 100 99 94 90 88 84 85 81 95 97 99 99 98 100 100 98 81 58
98 100 98 100 100 100 98 100 98 99 95 100 100 99 100 100 96 99 98 100 99 100 100 100 100 100 100 100 99 91 86 90 91 97 97 98 99 100 100 99 96 92 78
98 100 94 97 100 97 100 100 100 99 99 100 95 95 100 99 99 100 99 99 100 100 98 99 100 100 100 100 100 97 95 89 95 93 98 98 100 100 97 100 92 59 55
100 100 99 100 98 100 100 98 100 99 98 100 94 99 98 95 98 97 98 100 100 99 99 100 100 100 100 100 100 100 94 92 97 88 95 98 98 67 89 96 82 59 25
98 100 100 100 99 99 100 100 100 94 98 100 100 100 100 99 100 96 98 97 99 100 100 100 100 99 100 100 100 100 98 99 95 86 100 100 76 62 35 18 16 17 17
96 97 97 98 98 97 98 99 99 100 100 99 99 99 98 96 99 98 99 98 97 98 99 100 100 100 100 100 100 100 100 100 100 89 97 94 55 36 24 17 18 17 17
96 96 96 96 96 96 97 98 99 100 98 99 98 99 99 99 99 99 100 98 98 98 100 95 100 99 99 100 100 100 100 100 100 100 94 79 46 25 17 16 16 17 17
96 94 90 88 92 95 96 95 97 98 97 95 97 98 98 99 98 98 99 100 100 100 100 99 98 98 98 99 100 100 100 100 100 100 99 72 41 23 16 17 17 18 18
97 96 97 97 89 83 82 87 92 93 94 95 95 96 97 96 97 98 96 97 98 99 99 100 99 99 100 100 98 99 99 99 99 99 99 72 39 18 12 17 18 18 18
96 96 97 97 92 98 92 82 79 87 92 94 95 95 94 96 96 96 96 96 97 96 96 97 97 98 98 98 98 96 96 97 97 96 59 26 17 14 14 18 19 19 21
89 94 97 97 89 99 100 83 86 86 79 69 69 84 87 91 94 94 96 96 96 96 97 97 97 97 96 96 97 97 97 97 95 88 30 18 15 16 18 20 20 22 25
79 83 88 96 94 94 100 93 80 81 86 88 74 63 63 81 90 90 90 92 95 96 97 96 95 97 96 96 96 96 96 97 97 90 42 27 17 17 22 26 28 28 38
17 28 61 80 86 88 98 97 82 77 74 78 86 90 88 81 74 74 81 89 77 85 92 92 93 95 96 96 96 96 96 97 96 86 39 27 21 19 22 30 38 51 68
18 16 17 17 20 34 58 84 77 80 76 73 74 76 81 87 99 99 98 97 90 86 71 51 56 86 93 95 96 95 93 94 95 82 49 35 28 24 26 33 60 83 78
22 21 20 18 16 16 18 38 18 32 68 77 74 72 72 80 100 100 98 99 91 91 92 97 100 77 56 68 88 95 96 96 95 91 78 48 38 34 41 46 78 81 82

GFSMA_850_rhum_381.txt.gz
RH
73 73 72 71 75 78 78 79 80 83 92 93 99 94 88 90 86 80 87 88 87 83 94 81 74 34 86 74 78 85 59 27 20 22 20 21 20 21 27 22 26 38 48
74 75 78 80 80 84 89 90 87 90 96 99 100 98 94 89 85 83 82 88 92 84 86 84 70 29 71 48 82 96 99 75 54 38 42 50 46 44 61 84 85 74 76
74 75 82 86 86 86 88 95 99 100 100 99 100 99 100 94 86 87 85 86 84 89 81 80 74 38 72 82 84 97 98 94 75 71 90 92 87 76 89 91 93 94 94
74 75 80 86 90 89 91 86 96 100 100 99 100 100 100 94 87 90 88 88 85 87 88 80 77 70 79 84 82 98 92 92 95 83 90 91 96 93 91 95 94 90 87
78 79 87 98 89 95 98 89 98 98 96 97 96 92 88 93 89 89 78 88 86 89 91 87 82 67 78 81 82 89 90 89 95 90 95 93 93 93 87 88 86 85 85
98 90 90 98 99 99 99 100 95 97 91 88 97 100 99 100 99 91 90 92 90 92 90 92 86 77 78 81 92 98 88 90 95 94 96 88 86 88 87 85 86 86 87
99 100 100 97 95 96 100 100 96 96 100 100 98 99 100 100 94 96 98 94 96 97 94 93 96 94 93 94 99 97 99 99 100 98 87 85 86 91 94 92 93 94 96
100 100 100 100 94 89 82 98 100 99 99 99 99 100 100 100 100 100 99 94 90 90 100 97 100 98 100 88 99 100 100 100 100 92 92 91 89 91 89 79 94 100 100
98 97 93 100 100 100 91 91 97 100 99 100 100 97 99 99 100 100 100 91 99 97 95 100 100 97 100 89 99 100 98 97 97 97 99 100 97 92 85 85 92 98 94
99 99 100 98 100 100 100 99 98 97 100 100 100 99 98 92 99 98 100 99 96 96 97 80 86 93 92 87 97 88 92 90 95 98 99 100 100 87 99 94 78 72 68
100 100 100 98 100 98 100 100 100 99 98 98 100 100 99 94 86 91 97 98 96 99 92 88 85 89 90 84 93 88 89 87 88 87 90 97 100 100 99 100 99 86 64
99 100 99 100 96 97 95 100 99 100 100 99 100 100 100 99 96 88 86 98 98 100 100 100 100 100 100 100 99 94 100 94 89 86 84 86 94 98 98 98 100 99 95
97 100 100 100 100 100 98 99 100 98 99 99 100 100 100 100 99 100 94 98 98 100 100 100 100 99 100 99 100 100 93 90 90 91 97 96 94 94 97 98 98 97 99
98 100 99 100 100 100 99 100 100 97 99 100 100 98 100 98 99 100 100 99 100 100 99 98 100 97 99 99 98 100 99 97 95 99 96 96 94 91 97 98 99 100 100
98 100 100 98 100 100 100 100 98 100 98 100 100 94 98 93 89 94 98 99 100 99 100 99 100 100 100 100 100 100 100 100 99 99 97 93 91 76 95 98 100 100 98
99 100 98 100 97 99 100 100 100 100 99 99 100 100 96 91 94 94 92 94 98 100 100 100 100 100 99 99 100 100 100 99 98 100 97 100 93 83 95 100 98 80 38
97 98 99 100 100 100 99 100 100 98 99 98 97 99 99 99 97 88 89 94 92 99 98 100 99 100 100 100 100 100 100 100 100 100 100 99 90 88 61 71 74 55 30
96 96 98 98 98 99 99 100 100 99 100 99 100 98 99 100 99 96 96 96 100 100 96 98 97 97 99 100 100 100 100 100 100 100 100 100 100 99 86 75 50 27 22
96 96 97 96 96 98 97 98 100 100 99 100 100 98 98 99 98 99 99 100 99 99 98 97 96 96 98 100 100 99 100 100 100 100 100 100 100 100 99 75 48 25 20
96 96 96 96 96 96 97 97 97 94 93 95 95 94 93 93 94 95 98 97 98 99 99 100 100 100 99 100 100 100 100 100 100 100 99 100 100 100 99 61 22 18 17
96 96 95 94 97 92 94 96 96 96 97 96 96 94 95 94 91 92 94 96 96 95 96 97 98 98 99 99 100 100 100 100 100 100 99 99 100 99 97 50 23 18 17
96 98 95 95 94 95 97 96 91 83 85 92 92 95 96 98 98 94 93 92 90 90 93 95 94 96 97 97 97 98 98 99 99 99 99 99 98 97 96 93 51 16 18
95 97 96 94 92 97 99 87 89 81 74 70 69 72 80 86 88 86 91 94 94 93 93 93 92 93 94 96 96 96 97 97 97 97 98 97 97 96 96 72 29 20 23
62 84 91 93 91 98 94 77 76 76 82 86 86 83 77 78 81 72 74 80 85 88 90 90 92 96 95 95 96 96 96 96 96 96 96 96 97 94 70 50 31 41 39
18 17 21 33 51 75 100 81 81 75 72 71 74 85 92 98 98 94 90 84 81 86 86 75 63 65 86 94 97 96 95 95 95 95 96 95 94 90 55 35 28 42 65
22 20 18 16 16 32 97 79 39 72 74 73 75 78 98 97 100 96 87 88 92 96 92 92 90 87 74 58 54 83 93 96 95 95 94 95 94 87 80 62 29 34 51